Location: Asni�res
(49.1337°N, 2.3555°E)
Time: 08:15:24
(UTC+00:00)

Cosmos 1269 Rocket - Pass Details

Date: 16 October 2021
Orbit: 773 x 778 km, 74.1° (Epoch: 02 December)

Event Time Altitude Azimuth Distance (km) Brightness Sun altitude
Rises 19:03:22 0° 334° (NNW) 3,271 7.8 -21.2°
Reaches altitude 10° 19:05:46 10° 333° (NNW) 2,338 7.0 -21.5°
Maximum altitude 19:11:03 70° 251° (WSW) 830 4.2 -22.4°
Enters shadow 19:14:30 22° 172° (S) 1,654 5.5 -22.9°
